Wetterstation Valentinhaft
Wetterdaten: aktuell Mittwoch, 10.08.2022 13:50
Datum Zeit Temp. A. Wasser Feuchte A. Luftdruck Regen Wind Richtung Richtung Sonnenschein Solar Taupunkt Windchill Windböen
10.08.2022 13:50 25,3 °C 27,8 °C 51 % 1020,7 hPa 0,0 mm 19,8 km/h O-NO 67 ° 10 min 531 W/m² 14,4 °C 25,3 °C 39,1 km/h
10.08.2022 13:40 26,1 °C 27,8 °C 48 % 1020,7 hPa 0,0 mm 17,3 km/h O-NO 71 ° 10 min 737 W/m² 14,2 °C 26,1 °C 27,6 km/h
10.08.2022 13:30 26,3 °C 27,8 °C 50 % 1020,7 hPa 0,0 mm 19,7 km/h O-NO 78 ° 10 min 824 W/m² 15,0 °C 26,3 °C 34,5 km/h
10.08.2022 13:20 26,1 °C 27,8 °C 51 % 1020,7 hPa 0,0 mm 14,5 km/h O 81 ° 10 min 860 W/m² 15,2 °C 26,1 °C 39,1 km/h
10.08.2022 13:10 25,9 °C 27,8 °C 51 % 1020,8 hPa 0,0 mm 16,1 km/h O-NO 76 ° 10 min 877 W/m² 15,0 °C 25,9 °C 29,9 km/h
10.08.2022 13:00 25,6 °C 27,8 °C 50 % 1020,9 hPa 0,0 mm 18,1 km/h O-NO 62 ° 10 min 855 W/m² 14,4 °C 25,6 °C 36,8 km/h
10.08.2022 12:50 25,3 °C 27,2 °C 49 % 1020,9 hPa 0,0 mm 16,7 km/h O 101 ° 10 min 839 W/m² 13,8 °C 25,3 °C 32,2 km/h
10.08.2022 12:40 25,1 °C 27,2 °C 49 % 1021,0 hPa 0,0 mm 16,4 km/h NO 53 ° 10 min 821 W/m² 13,6 °C 25,1 °C 32,2 km/h
10.08.2022 12:30 24,8 °C 27,2 °C 52 % 1021,1 hPa 0,0 mm 18,9 km/h NO 50 ° 10 min 811 W/m² 14,3 °C 24,8 °C 36,8 km/h
10.08.2022 12:20 24,8 °C 27,2 °C 51 % 1021,1 hPa 0,0 mm 18,8 km/h O-NO 76 ° 10 min 802 W/m² 14,0 °C 24,8 °C 32,2 km/h
10.08.2022 12:10 24,6 °C 27,2 °C 51 % 1021,2 hPa 0,0 mm 16,9 km/h O-NO 76 ° 10 min 793 W/m² 13,8 °C 24,6 °C 32,2 km/h
10.08.2022 12:00 24,4 °C 27,2 °C 51 % 1021,3 hPa 0,0 mm 20,3 km/h O-NO 61 ° 10 min 781 W/m² 13,6 °C 24,4 °C 41,4 km/h
10.08.2022 11:50 24,2 °C 27,2 °C 53 % 1021,2 hPa 0,0 mm 19,7 km/h O 81 ° 10 min 771 W/m² 14,0 °C 24,2 °C 36,8 km/h
10.08.2022 11:40 23,9 °C 27,2 °C 51 % 1021,2 hPa 0,0 mm 21,4 km/h O-NO 72 ° 10 min 761 W/m² 13,1 °C 23,9 °C 34,5 km/h
10.08.2022 11:30 23,8 °C 27,2 °C 52 % 1021,3 hPa 0,0 mm 22,2 km/h O 84 ° 10 min 739 W/m² 13,3 °C 23,8 °C 39,1 km/h
10.08.2022 11:20 23,6 °C 27,2 °C 52 % 1021,4 hPa 0,0 mm 19,4 km/h O 80 ° 10 min 736 W/m² 13,2 °C 23,6 °C 39,1 km/h
10.08.2022 11:10 23,3 °C 27,2 °C 55 % 1021,4 hPa 0,0 mm 21,0 km/h O 80 ° 10 min 717 W/m² 13,7 °C 23,3 °C 32,2 km/h
10.08.2022 11:00 22,8 °C 27,2 °C 54 % 1021,5 hPa 0,0 mm 18,0 km/h O-NO 71 ° 10 min 700 W/m² 13,0 °C 22,8 °C 36,8 km/h
10.08.2022 10:50 22,3 °C 27,2 °C 57 % 1021,5 hPa 0,0 mm 26,2 km/h O 90 ° 10 min 648 W/m² 13,4 °C 22,3 °C 46,0 km/h
10.08.2022 10:40 22,1 °C 26,7 °C 55 % 1021,5 hPa 0,0 mm 29,8 km/h O-NO 74 ° 10 min 571 W/m² 12,6 °C 22,1 °C 48,3 km/h
10.08.2022 10:30 22,1 °C 26,7 °C 57 % 1021,4 hPa 0,0 mm 21,0 km/h O 92 ° 10 min 493 W/m² 13,2 °C 22,1 °C 43,7 km/h
10.08.2022 10:20 22,1 °C 26,7 °C 58 % 1021,5 hPa 0,0 mm 17,5 km/h O 101 ° 10 min 520 W/m² 13,4 °C 22,1 °C 32,2 km/h
10.08.2022 10:10 22,2 °C 26,7 °C 58 % 1021,5 hPa 0,0 mm 20,0 km/h O 88 ° 10 min 548 W/m² 13,5 °C 22,2 °C 36,8 km/h
10.08.2022 10:00 22,3 °C 26,7 °C 58 % 1021,5 hPa 0,0 mm 19,6 km/h O 93 ° 10 min 610 W/m² 13,6 °C 22,3 °C 34,5 km/h
10.08.2022 09:50 22,1 °C 26,7 °C 61 % 1021,4 hPa 0,0 mm 15,0 km/h O-NO 77 ° 10 min 564 W/m² 14,2 °C 22,1 °C 36,8 km/h
10.08.2022 09:40 21,7 °C 26,7 °C 61 % 1021,4 hPa 0,0 mm 17,1 km/h O 92 ° 10 min 533 W/m² 13,8 °C 21,7 °C 34,5 km/h
10.08.2022 09:30 21,4 °C 26,7 °C 60 % 1021,5 hPa 0,0 mm 16,8 km/h O 98 ° 10 min 503 W/m² 13,3 °C 21,4 °C 32,2 km/h
10.08.2022 09:20 21,1 °C 26,7 °C 65 % 1021,6 hPa 0,0 mm 11,9 km/h O 85 ° 10 min 474 W/m² 14,3 °C 21,1 °C 25,3 km/h
10.08.2022 09:10 20,6 °C 26,7 °C 64 % 1021,6 hPa 0,0 mm 12,7 km/h SO 125 ° 10 min 442 W/m² 13,5 °C 20,6 °C 23,0 km/h
10.08.2022 09:00 20,1 °C 26,7 °C 67 % 1021,7 hPa 0,0 mm 16,9 km/h O 94 ° 10 min 418 W/m² 13,8 °C 20,1 °C 29,9 km/h
10.08.2022 08:50 19,7 °C 26,7 °C 69 % 1021,7 hPa 0,0 mm 13,7 km/h O 91 ° 10 min 390 W/m² 13,8 °C 19,7 °C 29,9 km/h
10.08.2022 08:40 19,1 °C 26,7 °C 73 % 1021,7 hPa 0,0 mm 12,5 km/h O 91 ° 10 min 363 W/m² 14,1 °C 19,1 °C 20,7 km/h
10.08.2022 08:30 18,2 °C 26,7 °C 73 % 1021,7 hPa 0,0 mm 17,7 km/h O-NO 78 ° 10 min 333 W/m² 13,3 °C 18,2 °C 34,5 km/h
10.08.2022 08:20 17,3 °C 26,7 °C 78 % 1021,7 hPa 0,0 mm 12,1 km/h O 85 ° 10 min 303 W/m² 13,4 °C 17,3 °C 23,0 km/h
10.08.2022 08:10 16,2 °C 26,7 °C 82 % 1021,8 hPa 0,0 mm 11,1 km/h O-NO 74 ° 10 min 272 W/m² 13,1 °C 16,2 °C 25,3 km/h
10.08.2022 08:00 15,6 °C 26,7 °C 83 % 1021,7 hPa 0,0 mm 4,8 km/h O 87 ° 0 min 80 W/m² 12,7 °C 15,6 °C 13,8 km/h
10.08.2022 07:50 15,3 °C 26,7 °C 82 % 1021,8 hPa 0,0 mm 1,7 km/h O 81 ° 0 min 33 W/m² 12,2 °C 15,3 °C 6,9 km/h
10.08.2022 07:40 15,0 °C 26,7 °C 82 % 1021,8 hPa 0,0 mm 4,5 km/h O-SO 113 ° 0 min 31 W/m² 12,0 °C 15,0 °C 16,1 km/h
10.08.2022 07:30 14,8 °C 26,7 °C 82 % 1021,8 hPa 0,0 mm 6,4 km/h S-SO 154 ° 0 min 28 W/m² 11,8 °C 14,8 °C 18,4 km/h
10.08.2022 07:20 14,6 °C 26,7 °C 82 % 1021,8 hPa 0,0 mm 4,1 km/h O 98 ° 0 min 26 W/m² 11,6 °C 14,6 °C 18,4 km/h
10.08.2022 07:10 14,4 °C 26,7 °C 82 % 1021,8 hPa 0,0 mm 3,2 km/h S 180 ° 0 min 24 W/m² 11,4 °C 14,4 °C 16,1 km/h
10.08.2022 07:00 14,3 °C 26,7 °C 82 % 1021,9 hPa 0,0 mm 6,7 km/h O 90 ° 0 min 21 W/m² 11,3 °C 14,3 °C 20,7 km/h
10.08.2022 06:50 14,3 °C 26,7 °C 81 % 1021,7 hPa 0,0 mm 3,8 km/h O 84 ° 0 min 19 W/m² 11,1 °C 14,3 °C 18,4 km/h
10.08.2022 06:40 14,2 °C 26,7 °C 81 % 1021,7 hPa 0,0 mm 4,1 km/h O 80 ° 0 min 15 W/m² 11,0 °C 14,2 °C 20,7 km/h
10.08.2022 06:30 14,0 °C 26,7 °C 82 % 1021,6 hPa 0,0 mm 6,3 km/h O 91 ° 0 min 12 W/m² 11,0 °C 14,0 °C 25,3 km/h
10.08.2022 06:20 13,8 °C 26,7 °C 82 % 1021,7 hPa 0,0 mm 3,9 km/h O-SO 123 ° 0 min 9 W/m² 10,8 °C 13,8 °C 16,1 km/h
10.08.2022 06:10 13,7 °C 26,7 °C 83 % 1021,6 hPa 0,0 mm 4,8 km/h S-SO 155 ° 0 min 4 W/m² 10,9 °C 13,7 °C 18,4 km/h
10.08.2022 06:00 13,6 °C 26,7 °C 83 % 1021,6 hPa 0,0 mm 4,1 km/h S-SO 165 ° 0 min 0 W/m² 10,8 °C 13,6 °C 16,1 km/h
10.08.2022 05:50 13,4 °C 26,7 °C 84 % 1021,7 hPa 0,0 mm 3,2 km/h S-SO 153 ° 0 min 0 W/m² 10,8 °C 13,4 °C 9,2 km/h
10.08.2022 05:40 13,3 °C 26,7 °C 85 % 1021,6 hPa 0,0 mm 3,4 km/h O 85 ° 0 min 0 W/m² 10,8 °C 13,3 °C 13,8 km/h
10.08.2022 05:30 13,2 °C 26,7 °C 85 % 1021,6 hPa 0,0 mm 3,3 km/h O 94 ° 0 min 0 W/m² 10,7 °C 13,2 °C 11,5 km/h
10.08.2022 05:20 13,2 °C 26,7 °C 86 % 1021,6 hPa 0,0 mm 3,5 km/h O 84 ° 0 min 0 W/m² 10,9 °C 13,2 °C 11,5 km/h
10.08.2022 05:10 13,1 °C 26,7 °C 86 % 1021,6 hPa 0,0 mm 3,2 km/h SO 129 ° 0 min 0 W/m² 10,8 °C 13,1 °C 13,8 km/h
10.08.2022 05:00 12,8 °C 26,7 °C 87 % 1021,7 hPa 0,0 mm 3,3 km/h O 84 ° 0 min 0 W/m² 10,7 °C 12,8 °C 16,1 km/h
10.08.2022 04:50 12,5 °C 27,2 °C 89 % 1021,7 hPa 0,0 mm 2,4 km/h SO 140 ° 0 min 0 W/m² 10,7 °C 12,5 °C 9,2 km/h
10.08.2022 04:40 12,2 °C 27,2 °C 90 % 1021,7 hPa 0,0 mm 3,1 km/h O 84 ° 0 min 0 W/m² 10,6 °C 12,2 °C 9,2 km/h
10.08.2022 04:30 11,7 °C 27,2 °C 92 % 1021,8 hPa 0,0 mm 3,0 km/h S-SO 150 ° 0 min 0 W/m² 10,4 °C 11,7 °C 13,8 km/h
10.08.2022 04:20 11,1 °C 27,2 °C 93 % 1021,8 hPa 0,0 mm 2,6 km/h SO 125 ° 0 min 0 W/m² 10,0 °C 11,1 °C 9,2 km/h
10.08.2022 04:10 10,7 °C 27,2 °C 93 % 1021,8 hPa 0,0 mm 0,8 km/h SO 124 ° 0 min 0 W/m² 9,6 °C 10,7 °C 6,9 km/h
10.08.2022 04:00 10,6 °C 27,2 °C 93 % 1021,8 hPa 0,0 mm 0,5 km/h O-SO 120 ° 0 min 0 W/m² 9,5 °C 10,6 °C 4,6 km/h
10.08.2022 03:50 10,7 °C 27,2 °C 93 % 1021,8 hPa 0,0 mm 2,6 km/h O-SO 120 ° 0 min 0 W/m² 9,6 °C 10,7 °C 6,9 km/h
10.08.2022 03:40 10,7 °C 27,2 °C 93 % 1021,7 hPa 0,0 mm 1,9 km/h O-SO 120 ° 0 min 0 W/m² 9,6 °C 10,7 °C 6,9 km/h
10.08.2022 03:30 10,7 °C 27,2 °C 93 % 1021,7 hPa 0,0 mm 0,5 km/h O-SO 119 ° 0 min 0 W/m² 9,6 °C 10,7 °C 6,9 km/h
10.08.2022 03:20 10,8 °C 27,2 °C 93 % 1021,8 hPa 0,0 mm 0,0 km/h O-SO 115 ° 0 min 0 W/m² 9,7 °C 10,8 °C 0,0 km/h
10.08.2022 03:10 10,8 °C 27,2 °C 93 % 1021,8 hPa 0,0 mm 0,0 km/h O-SO 115 ° 0 min 0 W/m² 9,7 °C 10,8 °C 0,0 km/h
10.08.2022 03:00 10,9 °C 27,2 °C 93 % 1021,8 hPa 0,0 mm 0,0 km/h O-SO 115 ° 0 min 0 W/m² 9,8 °C 10,9 °C 0,0 km/h
10.08.2022 02:50 10,9 °C 27,2 °C 93 % 1021,8 hPa 0,0 mm 0,1 km/h O-SO 116 ° 0 min 0 W/m² 9,8 °C 10,9 °C 2,3 km/h
10.08.2022 02:40 10,8 °C 27,2 °C 93 % 1021,8 hPa 0,0 mm 0,4 km/h O-SO 116 ° 0 min 0 W/m² 9,7 °C 10,8 °C 4,6 km/h
10.08.2022 02:30 10,9 °C 27,2 °C 92 % 1021,8 hPa 0,0 mm 2,5 km/h O-SO 116 ° 0 min 0 W/m² 9,7 °C 10,9 °C 4,6 km/h
10.08.2022 02:20 11,0 °C 27,2 °C 92 % 1021,9 hPa 0,0 mm 1,6 km/h O-SO 116 ° 0 min 0 W/m² 9,8 °C 11,0 °C 4,6 km/h
10.08.2022 02:10 11,1 °C 27,2 °C 91 % 1021,9 hPa 0,0 mm 0,7 km/h O-SO 116 ° 0 min 0 W/m² 9,7 °C 11,1 °C 4,6 km/h
10.08.2022 02:00 11,4 °C 27,2 °C 91 % 1021,9 hPa 0,0 mm 0,0 km/h O-SO 116 ° 0 min 0 W/m² 10,0 °C 11,4 °C 0,0 km/h
10.08.2022 01:50 11,4 °C 27,2 °C 91 % 1021,9 hPa 0,0 mm 0,0 km/h O-SO 116 ° 0 min 0 W/m² 10,0 °C 11,4 °C 0,0 km/h
10.08.2022 01:40 11,6 °C 27,2 °C 91 % 1021,9 hPa 0,0 mm 0,0 km/h O-SO 116 ° 0 min 0 W/m² 10,2 °C 11,6 °C 0,0 km/h
10.08.2022 01:30 11,7 °C 27,2 °C 91 % 1022,0 hPa 0,0 mm 0,0 km/h O-SO 115 ° 0 min 0 W/m² 10,3 °C 11,7 °C 0,0 km/h
10.08.2022 01:20 11,8 °C 27,2 °C 91 % 1022,1 hPa 0,0 mm 0,0 km/h O-SO 116 ° 0 min 0 W/m² 10,4 °C 11,8 °C 0,0 km/h
10.08.2022 01:10 11,9 °C 27,2 °C 90 % 1022,0 hPa 0,0 mm 0,0 km/h O-SO 116 ° 0 min 0 W/m² 10,3 °C 11,9 °C 0,0 km/h
10.08.2022 01:00 12,1 °C 27,2 °C 90 % 1022,1 hPa 0,0 mm 0,0 km/h O-SO 115 ° 0 min 0 W/m² 10,5 °C 12,1 °C 0,0 km/h
10.08.2022 00:50 12,2 °C 27,8 °C 89 % 1022,2 hPa 0,0 mm 0,0 km/h O-SO 116 ° 0 min 0 W/m² 10,4 °C 12,2 °C 0,0 km/h
10.08.2022 00:40 12,3 °C 27,8 °C 89 % 1022,1 hPa 0,0 mm 0,0 km/h O-SO 116 ° 0 min 0 W/m² 10,5 °C 12,3 °C 0,0 km/h
10.08.2022 00:30 12,5 °C 27,2 °C 89 % 1022,2 hPa 0,0 mm 0,0 km/h O-SO 116 ° 0 min 0 W/m² 10,7 °C 12,5 °C 0,0 km/h
10.08.2022 00:20 12,7 °C 27,2 °C 88 % 1022,2 hPa 0,0 mm 0,0 km/h O-SO 116 ° 0 min 0 W/m² 10,8 °C 12,7 °C 0,0 km/h
10.08.2022 00:10 12,9 °C 27,8 °C 87 % 1022,2 hPa 0,0 mm 0,0 km/h O-SO 115 ° 0 min 0 W/m² 10,8 °C 12,9 °C 0,0 km/h
10.08.2022 00:00 13,1 °C 27,8 °C 87 % 1022,3 hPa 0,0 mm 0,0 km/h O-SO 115 ° 0 min 0 W/m² 11,0 °C 13,1 °C 0,0 km/h
09.08.2022 23:50 13,3 °C 27,8 °C 87 % 1022,4 hPa 0,0 mm 0,0 km/h O-SO 115 ° 0 min 0 W/m² 11,2 °C 13,3 °C 0,0 km/h
09.08.2022 23:40 13,3 °C 27,8 °C 86 % 1022,4 hPa 0,0 mm 0,0 km/h O-SO 115 ° 0 min 0 W/m² 11,0 °C 13,3 °C 0,0 km/h
09.08.2022 23:30 13,5 °C 27,8 °C 85 % 1022,5 hPa 0,0 mm 0,0 km/h O-SO 115 ° 0 min 0 W/m² 11,0 °C 13,5 °C 0,0 km/h
09.08.2022 23:20 13,7 °C 27,8 °C 84 % 1022,5 hPa 0,0 mm 0,0 km/h O-SO 115 ° 0 min 0 W/m² 11,0 °C 13,7 °C 0,0 km/h
09.08.2022 23:10 14,0 °C 27,8 °C 85 % 1022,6 hPa 0,0 mm 0,0 km/h O-SO 115 ° 0 min 0 W/m² 11,5 °C 14,0 °C 0,0 km/h
09.08.2022 23:00 14,2 °C 27,8 °C 84 % 1022,6 hPa 0,0 mm 0,0 km/h O-SO 115 ° 0 min 0 W/m² 11,5 °C 14,2 °C 0,0 km/h
09.08.2022 22:50 14,3 °C 27,8 °C 83 % 1022,6 hPa 0,0 mm 0,1 km/h O-SO 115 ° 0 min 0 W/m² 11,5 °C 14,3 °C 2,3 km/h
09.08.2022 22:40 14,6 °C 27,8 °C 82 % 1022,6 hPa 0,0 mm 0,5 km/h O-SO 115 ° 0 min 0 W/m² 11,6 °C 14,6 °C 4,6 km/h
09.08.2022 22:30 14,9 °C 27,8 °C 81 % 1022,6 hPa 0,0 mm 0,1 km/h O-SO 115 ° 0 min 0 W/m² 11,7 °C 14,9 °C 2,3 km/h
09.08.2022 22:20 15,3 °C 27,8 °C 80 % 1022,5 hPa 0,0 mm 0,7 km/h O-SO 115 ° 0 min 0 W/m² 11,9 °C 15,3 °C 4,6 km/h
09.08.2022 22:10 15,6 °C 27,8 °C 79 % 1022,4 hPa 0,0 mm 1,8 km/h O-SO 115 ° 0 min 0 W/m² 12,0 °C 15,6 °C 6,9 km/h
09.08.2022 22:00 15,9 °C 27,8 °C 77 % 1022,4 hPa 0,0 mm 0,2 km/h O-NO 62 ° 0 min 0 W/m² 11,9 °C 15,9 °C 4,6 km/h
09.08.2022 21:50 16,3 °C 27,8 °C 76 % 1022,3 hPa 0,0 mm 0,1 km/h O-NO 61 ° 0 min 0 W/m² 12,1 °C 16,3 °C 2,3 km/h
09.08.2022 21:40 16,6 °C 27,8 °C 75 % 1022,2 hPa 0,0 mm 0,0 km/h O-NO 61 ° 0 min 0 W/m² 12,1 °C 16,6 °C 2,3 km/h
09.08.2022 21:30 17,0 °C 27,8 °C 74 % 1022,3 hPa 0,0 mm 0,1 km/h O-NO 61 ° 0 min 0 W/m² 12,3 °C 17,0 °C 2,3 km/h
09.08.2022 21:20 17,4 °C 27,8 °C 73 % 1022,2 hPa 0,0 mm 0,9 km/h O-NO 61 ° 0 min 0 W/m² 12,5 °C 17,4 °C 4,6 km/h
09.08.2022 21:10 17,9 °C 27,8 °C 71 % 1022,1 hPa 0,0 mm 0,8 km/h O-NO 61 ° 0 min 0 W/m² 12,6 °C 17,9 °C 2,3 km/h
09.08.2022 21:00 18,3 °C 27,8 °C 69 % 1021,9 hPa 0,0 mm 2,0 km/h O-NO 61 ° 0 min 0 W/m² 12,5 °C 18,3 °C 6,9 km/h
09.08.2022 20:50 18,8 °C 27,8 °C 68 % 1021,9 hPa 0,0 mm 0,4 km/h O-NO 61 ° 0 min 0 W/m² 12,8 °C 18,8 °C 6,9 km/h
09.08.2022 20:40 19,4 °C 27,8 °C 65 % 1021,7 hPa 0,0 mm 0,0 km/h O-NO 62 ° 0 min 0 W/m² 12,6 °C 19,4 °C 0,0 km/h
09.08.2022 20:30 19,9 °C 27,8 °C 63 % 1021,6 hPa 0,0 mm 0,0 km/h O-NO 62 ° 0 min 4 W/m² 12,6 °C 19,9 °C 0,0 km/h
09.08.2022 20:20 20,5 °C 27,8 °C 62 % 1021,5 hPa 0,0 mm 0,1 km/h O-NO 62 ° 10 min 9 W/m² 13,0 °C 20,5 °C 4,6 km/h
09.08.2022 20:10 21,0 °C 27,8 °C 61 % 1021,6 hPa 0,0 mm 2,6 km/h O-NO 62 ° 0 min 13 W/m² 13,2 °C 21,0 °C 6,9 km/h
09.08.2022 20:00 21,4 °C 27,8 °C 58 % 1021,4 hPa 0,0 mm 4,3 km/h O-NO 62 ° 0 min 18 W/m² 12,8 °C 21,4 °C 6,9 km/h
09.08.2022 19:50 22,0 °C 27,8 °C 56 % 1021,3 hPa 0,0 mm 6,8 km/h O-SO 108 ° 0 min 22 W/m² 12,8 °C 22,0 °C 16,1 km/h
09.08.2022 19:40 22,6 °C 27,8 °C 54 % 1021,3 hPa 0,0 mm 8,0 km/h O-NO 74 ° 0 min 25 W/m² 12,8 °C 22,6 °C 20,7 km/h
09.08.2022 19:30 23,4 °C 27,8 °C 52 % 1021,2 hPa 0,0 mm 5,1 km/h O 89 ° 0 min 28 W/m² 13,0 °C 23,4 °C 16,1 km/h
09.08.2022 19:20 24,1 °C 27,8 °C 50 % 1021,1 hPa 0,0 mm 7,7 km/h O-NO 65 ° 0 min 42 W/m² 13,0 °C 24,1 °C 13,8 km/h
09.08.2022 19:10 25,1 °C 27,8 °C 46 % 1021,0 hPa 0,0 mm 6,4 km/h O-NO 72 ° 0 min 55 W/m² 12,7 °C 25,1 °C 13,8 km/h
09.08.2022 19:00 25,6 °C 27,8 °C 47 % 1021,0 hPa 0,0 mm 8,9 km/h O-NO 76 ° 10 min 193 W/m² 13,4 °C 25,6 °C 16,1 km/h
09.08.2022 18:50 26,2 °C 27,8 °C 44 % 1021,0 hPa 0,0 mm 8,3 km/h O 89 ° 10 min 221 W/m² 13,0 °C 26,2 °C 23,0 km/h
09.08.2022 18:40 26,7 °C 27,8 °C 47 % 1020,9 hPa 0,0 mm 7,0 km/h O 89 ° 10 min 249 W/m² 14,4 °C 26,7 °C 20,7 km/h
09.08.2022 18:30 26,7 °C 27,8 °C 43 % 1021,0 hPa 0,0 mm 6,3 km/h NO 44 ° 10 min 277 W/m² 13,1 °C 26,7 °C 13,8 km/h
09.08.2022 18:20 26,8 °C 27,8 °C 42 % 1021,0 hPa 0,0 mm 7,0 km/h O 94 ° 10 min 307 W/m² 12,8 °C 26,8 °C 13,8 km/h
09.08.2022 18:10 26,8 °C 27,8 °C 43 % 1021,1 hPa 0,0 mm 8,5 km/h O-NO 73 ° 10 min 337 W/m² 13,2 °C 26,8 °C 23,0 km/h
09.08.2022 18:00 27,0 °C 27,8 °C 41 % 1021,1 hPa 0,0 mm 9,0 km/h NO 39 ° 10 min 362 W/m² 12,6 °C 27,0 °C 29,9 km/h
09.08.2022 17:50 27,3 °C 27,8 °C 39 % 1021,1 hPa 0,0 mm 7,3 km/h O-NO 65 ° 10 min 392 W/m² 12,1 °C 27,3 °C 18,4 km/h
09.08.2022 17:40 27,4 °C 27,8 °C 45 % 1021,2 hPa 0,0 mm 8,5 km/h O 83 ° 10 min 418 W/m² 14,4 °C 27,4 °C 20,7 km/h
09.08.2022 17:30 27,4 °C 27,8 °C 37 % 1021,2 hPa 0,0 mm 11,8 km/h NO 41 ° 10 min 445 W/m² 11,4 °C 27,4 °C 32,2 km/h
09.08.2022 17:20 27,4 °C 27,8 °C 40 % 1021,3 hPa 0,0 mm 7,3 km/h NO 44 ° 10 min 471 W/m² 12,6 °C 27,4 °C 13,8 km/h
09.08.2022 17:10 27,1 °C 27,8 °C 43 % 1021,4 hPa 0,0 mm 8,2 km/h O-NO 71 ° 10 min 496 W/m² 13,4 °C 27,1 °C 23,0 km/h
09.08.2022 17:00 26,9 °C 28,3 °C 40 % 1021,4 hPa 0,0 mm 12,2 km/h O-NO 61 ° 10 min 521 W/m² 12,1 °C 26,9 °C 29,9 km/h
09.08.2022 16:50 27,0 °C 28,3 °C 42 % 1021,4 hPa 0,0 mm 7,8 km/h O-NO 69 ° 10 min 544 W/m² 13,0 °C 27,0 °C 20,7 km/h
09.08.2022 16:40 26,6 °C 28,3 °C 38 % 1021,4 hPa 0,0 mm 12,2 km/h O-NO 74 ° 10 min 567 W/m² 11,1 °C 26,6 °C 36,8 km/h
09.08.2022 16:30 26,9 °C 28,3 °C 39 % 1021,3 hPa 0,0 mm 13,9 km/h NO 38 ° 10 min 590 W/m² 11,8 °C 26,9 °C 32,2 km/h
09.08.2022 16:20 27,4 °C 28,3 °C 41 % 1021,3 hPa 0,0 mm 8,6 km/h O-NO 69 ° 10 min 613 W/m² 13,0 °C 27,4 °C 25,3 km/h
09.08.2022 16:10 27,6 °C 28,3 °C 45 % 1021,2 hPa 0,0 mm 8,9 km/h NO 36 ° 10 min 631 W/m² 14,6 °C 27,6 °C 23,0 km/h
09.08.2022 16:00 27,7 °C 28,3 °C 40 % 1021,4 hPa 0,0 mm 7,0 km/h N 360 ° 10 min 652 W/m² 12,9 °C 27,7 °C 23,0 km/h
09.08.2022 15:50 27,4 °C 28,3 °C 41 % 1021,3 hPa 0,0 mm 8,3 km/h O 94 ° 10 min 669 W/m² 13,0 °C 27,4 °C 20,7 km/h
09.08.2022 15:40 27,3 °C 27,8 °C 43 % 1021,3 hPa 0,0 mm 11,0 km/h O-NO 62 ° 10 min 686 W/m² 13,6 °C 27,3 °C 32,2 km/h
09.08.2022 15:30 27,1 °C 27,8 °C 40 % 1021,4 hPa 0,0 mm 7,4 km/h O 87 ° 10 min 708 W/m² 12,3 °C 27,1 °C 20,7 km/h
09.08.2022 15:20 26,9 °C 27,8 °C 41 % 1021,4 hPa 0,0 mm 7,7 km/h O-NO 67 ° 10 min 723 W/m² 12,5 °C 26,9 °C 23,0 km/h
09.08.2022 15:10 26,9 °C 27,8 °C 38 % 1021,5 hPa 0,0 mm 7,7 km/h O 79 ° 10 min 737 W/m² 11,4 °C 26,9 °C 18,4 km/h
09.08.2022 15:00 27,1 °C 27,8 °C 44 % 1021,4 hPa 0,0 mm 11,6 km/h NO 46 ° 10 min 753 W/m² 13,8 °C 27,1 °C 29,9 km/h
09.08.2022 14:50 27,1 °C 27,8 °C 42 % 1021,4 hPa 0,0 mm 10,4 km/h O-NO 72 ° 10 min 769 W/m² 13,1 °C 27,1 °C 29,9 km/h
09.08.2022 14:40 26,8 °C 27,8 °C 45 % 1021,6 hPa 0,0 mm 8,0 km/h O-NO 71 ° 10 min 775 W/m² 13,9 °C 26,8 °C 23,0 km/h
09.08.2022 14:30 26,9 °C 27,8 °C 43 % 1021,6 hPa 0,0 mm 5,2 km/h O-SO 104 ° 10 min 784 W/m² 13,2 °C 26,9 °C 25,3 km/h
09.08.2022 14:20 26,9 °C 27,8 °C 44 % 1021,7 hPa 0,0 mm 6,3 km/h O-NO 61 ° 10 min 795 W/m² 13,6 °C 26,9 °C 16,1 km/h
09.08.2022 14:10 26,7 °C 27,2 °C 44 % 1021,8 hPa 0,0 mm 7,7 km/h O 81 ° 10 min 804 W/m² 13,4 °C 26,7 °C 13,8 km/h
09.08.2022 14:00 26,4 °C 27,2 °C 43 % 1021,8 hPa 0,0 mm 7,6 km/h O 101 ° 10 min 810 W/m² 12,8 °C 26,4 °C 25,3 km/h
_ Min-Zeit 04:00 10:40 17:30 13:50 - 03:20 - - - - 04:00 04:00 03:20
Minimum _ 10,6 °C 26,7 °C 37 % 1020,7 hPa - 0,0 km/h - - - - 9,5 °C 10,6 °C 0,0 km/h
_ Max-Zeit 16:00 17:00 04:20 23:10 13:50 10:40 - - 13:50 13:10 13:20 16:00 10:40
Maximum _ 27,7 °C 28,3 °C 93 % 1022,6 hPa 0,0 mm 29,8 km/h
O-NO
- - 10 min 877 W/m² 15,2 °C 27,7 °C 48,3 km/h
O-SO
Durchschnitt _ 19,7 °C 27,4 °C 66 % 1021,6 hPa #0,0 mm 7,3 km/h O-NO - #5:50 h 265 W/m² 12,2 °C 19,7 °C 17,6 km/h